TimeCST,TemperatureF,Dew PointF,Humidity,Sea Level PressureIn,VisibilityMPH,Wind Direction,Wind SpeedMPH,Gust SpeedMPH,PrecipitationIn,Events,Conditions,WindDirDegrees,DateUTC
12:13 AM,17.6,10.4,73,30.12,10.0,SW,12.7,-,N/A,,Clear,220,2013-01-04 06:13:00
12:33 AM,17.6,8.6,68,30.10,10.0,SW,10.4,-,N/A,,Clear,220,2013-01-04 06:33:00
12:53 AM,17.6,8.6,68,30.09,10.0,SW,10.4,-,N/A,,Clear,220,2013-01-04 06:53:00
1:13 AM,17.6,10.4,73,30.09,10.0,SW,11.5,-,N/A,,Clear,220,2013-01-04 07:13:00
1:33 AM,17.6,8.6,68,30.08,10.0,SSW,11.5,-,N/A,,Clear,210,2013-01-04 07:33:00
1:53 AM,17.6,8.6,68,30.07,10.0,SSW,15.0,-,N/A,,Clear,210,2013-01-04 07:53:00
2:14 AM,17.6,10.4,73,30.06,10.0,SSW,17.3,-,N/A,,Clear,210,2013-01-04 08:14:00
2:34 AM,17.6,10.4,73,30.06,10.0,SSW,16.1,-,N/A,,Clear,210,2013-01-04 08:34:00
3:13 AM,19.4,10.4,68,30.07,10.0,WSW,9.2,-,N/A,,Clear,240,2013-01-04 09:13:00
3:33 AM,19.4,10.4,68,30.05,10.0,SW,11.5,-,N/A,,Clear,220,2013-01-04 09:33:00
3:53 AM,19.4,10.4,68,30.05,10.0,SW,15.0,-,N/A,,Clear,230,2013-01-04 09:53:00
4:13 AM,19.4,10.4,68,30.05,10.0,SW,15.0,-,N/A,,Clear,230,2013-01-04 10:13:00
4:33 AM,19.4,10.4,68,30.04,10.0,SW,17.3,-,N/A,,Clear,220,2013-01-04 10:33:00
5:14 AM,19.4,10.4,68,30.02,10.0,SW,15.0,-,N/A,,Clear,220,2013-01-04 11:14:00
5:33 AM,19.4,10.4,68,30.02,10.0,SW,12.7,-,N/A,,Clear,220,2013-01-04 11:33:00
5:53 AM,19.4,8.6,63,30.03,10.0,SW,11.5,-,N/A,,Clear,220,2013-01-04 11:53:00
6:13 AM,17.6,8.6,68,30.03,10.0,WSW,6.9,-,N/A,,Clear,240,2013-01-04 12:13:00
6:34 AM,19.4,10.4,68,30.03,10.0,SW,9.2,-,N/A,,Clear,230,2013-01-04 12:34:00
7:08 AM,19.4,10.4,68,30.04,10.0,SW,12.7,-,N/A,,Clear,230,2013-01-04 13:08:00
7:48 AM,19.4,10.4,68,30.04,10.0,SW,13.8,-,N/A,,Clear,220,2013-01-04 13:48:00
7:55 AM,19.4,8.6,63,30.05,10.0,SW,15.0,-,N/A,,Clear,230,2013-01-04 13:55:00
8:13 AM,19.4,8.6,63,30.05,10.0,SW,13.8,-,N/A,,Clear,230,2013-01-04 14:13:00
8:34 AM,19.4,8.6,63,30.05,10.0,SW,13.8,-,N/A,,Clear,230,2013-01-04 14:34:00
8:53 AM,19.4,8.6,63,30.05,10.0,SW,12.7,-,N/A,,Clear,230,2013-01-04 14:53:00
9:07 AM,19.4,8.6,63,30.06,10.0,WSW,13.8,-,N/A,,Clear,240,2013-01-04 15:07:00
9:34 AM,21.2,10.4,63,30.07,10.0,SW,13.8,-,N/A,,Clear,230,2013-01-04 15:34:00
9:54 AM,21.2,10.4,63,30.07,10.0,SW,13.8,-,N/A,,Clear,230,2013-01-04 15:54:00
10:13 AM,21.2,10.4,63,30.08,10.0,WSW,13.8,-,N/A,,Clear,240,2013-01-04 16:13:00
10:33 AM,23.0,10.4,59,30.09,10.0,SW,11.5,-,N/A,,Clear,230,2013-01-04 16:33:00
10:54 AM,23.0,10.4,59,30.08,10.0,WSW,11.5,-,N/A,,Clear,240,2013-01-04 16:54:00
11:14 AM,24.8,12.2,59,30.08,10.0,WSW,9.2,-,N/A,,Clear,240,2013-01-04 17:14:00
11:33 AM,24.8,12.2,59,30.08,10.0,WSW,9.2,-,N/A,,Clear,240,2013-01-04 17:33:00
11:53 AM,26.6,12.2,55,30.08,10.0,WSW,10.4,-,N/A,,Clear,240,2013-01-04 17:53:00
12:14 PM,26.6,12.2,55,30.08,10.0,WSW,9.2,-,N/A,,Clear,240,2013-01-04 18:14:00
12:33 PM,26.6,12.2,55,30.08,10.0,WSW,8.1,-,N/A,,Clear,240,2013-01-04 18:33:00
12:54 PM,26.6,12.2,55,30.07,10.0,WSW,9.2,-,N/A,,Clear,240,2013-01-04 18:54:00
1:13 PM,28.4,14.0,55,30.08,10.0,WSW,8.1,-,N/A,,Clear,250,2013-01-04 19:13:00
1:33 PM,28.4,14.0,55,30.08,10.0,WSW,8.1,-,N/A,,Clear,240,2013-01-04 19:33:00
1:54 PM,28.4,12.2,51,30.08,10.0,WSW,6.9,-,N/A,,Clear,240,2013-01-04 19:54:00
2:10 PM,28.4,14.0,55,30.07,10.0,WSW,6.9,-,N/A,,Clear,240,2013-01-04 20:10:00
2:32 PM,28.4,15.8,59,30.08,10.0,SW,6.9,-,N/A,,Clear,220,2013-01-04 20:32:00
2:53 PM,28.4,15.8,59,30.08,10.0,SW,8.1,-,N/A,,Clear,220,2013-01-04 20:53:00
3:14 PM,28.4,15.8,59,30.09,10.0,SW,9.2,-,N/A,,Clear,220,2013-01-04 21:14:00
3:33 PM,28.4,15.8,59,30.10,10.0,SW,9.2,-,N/A,,Clear,220,2013-01-04 21:33:00
3:53 PM,26.6,15.8,64,30.09,10.0,SW,6.9,-,N/A,,Clear,220,2013-01-04 21:53:00
4:13 PM,26.6,15.8,64,30.09,10.0,SW,6.9,-,N/A,,Clear,220,2013-01-04 22:13:00
4:53 PM,21.2,12.2,68,30.09,10.0,SSW,5.8,-,N/A,,Clear,210,2013-01-04 22:53:00
5:13 PM,21.2,12.2,68,30.10,10.0,SSW,8.1,-,N/A,,Clear,200,2013-01-04 23:13:00
5:33 PM,21.2,12.2,68,30.10,10.0,South,5.8,-,N/A,,Clear,190,2013-01-04 23:33:00
5:54 PM,19.4,10.4,68,30.10,10.0,South,8.1,-,N/A,,Clear,190,2013-01-04 23:54:00
6:13 PM,19.4,10.4,68,30.10,10.0,South,3.5,-,N/A,,Clear,180,2013-01-05 00:13:00
6:34 PM,17.6,10.4,73,30.10,10.0,South,5.8,-,N/A,,Clear,190,2013-01-05 00:34:00
6:53 PM,19.4,12.2,74,30.10,10.0,South,6.9,-,N/A,,Clear,190,2013-01-05 00:53:00
7:13 PM,19.4,10.4,68,30.10,10.0,South,9.2,-,N/A,,Clear,190,2013-01-05 01:13:00
7:33 PM,19.4,10.4,68,30.10,10.0,South,10.4,-,N/A,,Clear,190,2013-01-05 01:33:00
7:53 PM,19.4,10.4,68,30.11,10.0,South,9.2,-,N/A,,Clear,190,2013-01-05 01:53:00
8:13 PM,19.4,10.4,68,30.11,10.0,South,9.2,-,N/A,,Clear,190,2013-01-05 02:13:00
8:33 PM,17.6,10.4,73,30.10,10.0,SSW,8.1,-,N/A,,Clear,200,2013-01-05 02:33:00
8:53 PM,17.6,10.4,73,30.10,10.0,SSW,6.9,-,N/A,,Clear,200,2013-01-05 02:53:00
9:13 PM,19.4,12.2,74,30.10,10.0,South,8.1,-,N/A,,Clear,190,2013-01-05 03:13:00
9:34 PM,17.6,10.4,73,30.09,10.0,SSE,5.8,-,N/A,,Clear,150,2013-01-05 03:34:00
9:53 PM,15.8,8.6,73,30.08,10.0,SE,3.5,-,N/A,,Clear,130,2013-01-05 03:53:00
10:13 PM,17.6,10.4,73,30.08,10.0,SSE,6.9,-,N/A,,Clear,150,2013-01-05 04:13:00
10:33 PM,17.6,10.4,73,30.08,10.0,ESE,5.8,-,N/A,,Clear,120,2013-01-05 04:33:00
10:53 PM,17.6,10.4,73,30.08,10.0,SE,3.5,-,N/A,,Clear,130,2013-01-05 04:53:00
11:14 PM,17.6,10.4,73,30.08,10.0,SSE,6.9,-,N/A,,Clear,150,2013-01-05 05:14:00
11:34 PM,15.8,8.6,73,30.07,10.0,SSE,8.1,-,N/A,,Clear,150,2013-01-05 05:34:00
11:53 PM,15.8,8.6,73,30.06,10.0,SSE,6.9,-,N/A,,Clear,150,2013-01-05 05:53:00